Fort Worth Meacham International Airport
KFTW : now visible

Airfield :











YOU CAN JOIN US ON...

 
LOGIN :

Register | Disclaimer

   EN    FR    IT 

 









Legend :    VFR   Marginal VFR   IFR   Intensive IFR   Very Intensive IFR
Visi :
Ceiling :
>= 8 km
>= 3000ft
5 to 8 km
1000 to 3000 ft
1500m to 5 km
500 to 1000 ft
800 to 1500m
200 to 500 ft
< 800m
< 200 ft
Symbols :   Thunderstorms  Fog  Heavy snow  Heavy precipitations  Wind > 20 kt






- Airport Elevation : 710 ft
- IATA code : FTW


KFTW - Fort Worth Meacham International

CURRENT METAR :
  • 220253Z 13006KT 10SM OVC070 13/00 A3017 RMK AO2 SLP217 T01280000 53006

EXPIRED METARs :
  • 220153Z 09004KT 10SM OVC075 13/00 A3015 RMK AO2 SLP211 T01280000
  • 220053Z 06005KT 10SM OVC080 13/M01 A3015 RMK AO2 SLP208 T01331011

TAF KFTW
Valid from the 22 at 03:00 until the 23 at 00:00 UTC


220248Z 2203/2224 12006KT P6SM BKN060
FM221600 14014KT P6SM BKN050
KZFW FIR / North America



MET'MAP, your aeronautical weather chart ! - Copyright ORBIFLY December 2007 - Disclaimer

ORBIFLY MET'MAP TEAM :

Programming & Development : Alexandra Zaïnal
Concept & original design : Baudouin d'Aumeries
Assistance for programming : Marc-Olivier Méhu
Technical & hardware support : Manuel Goepfert

Contact : metmap@orbifly.com




SOURCES & CREDITS :

   NOAA       Earth
Advisory